Terminal Aerodrome Forecast
Issued by NWS Lake Charles, LA

Home | Current Version | Previous Version | Text Only | Print | Product List | Glossary On
Versions: 1 2 3 4 5 6 7 8 9 10 11 12 13 14 15 16 17
000
FTUS44 KLCH 211600 AAB
TAFARA
TAF AMD
KARA 211614Z 2116/2212 16011KT P6SM BKN025
     FM220000 VRB04KT P6SM SCT050
     FM220700 00000KT 4SM BR FEW015=

USA.gov is the U.S. government's official web portal to all federal, state and local government web resources and services.